{"data":{"norad_id":55941,"intl_designator":"2023-037AD","name":"STARLINK-5914","alt_names":[],"object_type":"PAYLOAD","status":"ACTIVE","operator":null,"country":"US","launch_date":"2023-03-17","launch_site_code":"AFWTR","launch_vehicle":null,"mission":null,"orbit_class":"UNKNOWN","rcs_meters":null,"size_class":null,"mass_kg":null,"dimensions":null,"purposes":["comms"],"wikipedia_slug":null,"has_3d_model":false,"image_url":null,"decayed_at":null,"tle_current":{"epoch":"2026-05-25T02:38:41.565984Z","epoch_age_seconds":59411,"freshness":"FRESH","line1":"1 55941U 23037AD  26145.11020331 -.00002855  00000+0 -23153-3 0  9996","line2":"2 55941  69.9995  91.9200 0003069 267.7072  92.3735 14.98333497175422","mean_motion":14.98333497,"eccentricity":0.0003069,"inclination_deg":69.9995,"raan_deg":91.92,"arg_perigee_deg":267.7072,"mean_anomaly_deg":92.3735,"bstar":-0.00023153,"rev_number":17542,"period_min":96.106774819037,"perigee_km":569.91206590205,"apogee_km":574.17808766078,"semimajor_km":6950.1820767814,"source":"CELESTRAK","updated_at":"2026-05-25T13:38:17.916099Z"}}}